Simultaneous Nadir Overpasses (SNOs) Predictions

Prediction of SNOs between METOP-A and TERRA Satellite Orbit:

Table of predicted SNOs for the next 14.0 days since TLE Epoch: 9/14/2019
Index Date (METOP-A) Time (METOP-A) Lat,Lon (METOP-A) SZA (METOP-A ) Date (TERRA) Time (TERRA) Lat,Lon (TERRA) SZA (TERRA ) Distance(km) Time Diff (sec)
1 09/16/2019 17:10:01 81.45, -27.73 82.07 09/16/2019 17:10:48 81.44, -27.90 82.07 2.83 47
2 09/16/2019 18:00:42 -81.45, 139.60 97.92 09/16/2019 18:00:15 -81.44, 139.64 97.94 1.27 27
3 09/19/2019 12:44:25 81.45, 38.81 83.19 09/19/2019 12:45:05 81.46, 38.80 83.22 1.20 40
4 09/19/2019 13:35:05 -81.45,-153.84 96.80 09/19/2019 13:34:32 -81.43,-154.02 96.84 3.16 33
5 09/22/2019 08:18:49 81.45, 104.94 84.28 09/22/2019 08:19:24 81.44, 104.90 84.29 1.05 35
6 09/22/2019 09:09:30 -81.45, -87.70 95.71 09/22/2019 09:08:51 -81.44, -87.50 95.71 3.36 39
7 09/25/2019 03:53:13 81.45, 171.45 85.41 09/25/2019 03:53:44 81.45, 171.57 85.44 2.12 31
8 09/25/2019 04:43:54 -81.45, -21.17 94.58 09/25/2019 04:43:12 -81.43, -21.19 94.61 1.26 42
9 09/27/2019 23:27:37 81.44,-122.05 86.54 09/27/2019 23:28:06 81.46,-121.96 86.57 1.95 29




NCC Satellite Simultaneous Nadir Overpasses (SNOs) Prediction Service
